,

(GMT )
Regina

Weather History for CYQR - March, 2013

Change the Weather History Date:

Wednesday, March 13, 2013

  Actual Average Record
Temperature  
Mean Temperature 20 °F -  
Max Temperature 33 °F 23 °F 55 °F (2016)
Min Temperature 8 °F 6 °F -13 °F (1997)
Degree Days  
Heating Degree Days 44    
Moisture  
Dew Point 17 °F    
Average Humidity 84    
Maximum Humidity 93    
Minimum Humidity 76    
Precipitation  
Precipitation 0.00 in - - ()
Sea Level Pressure  
Sea Level Pressure 30.04 in    
Wind  
Wind Speed 16 mph ()    
Max Wind Speed 24 mph    
Max Gust Speed 29 mph    
Visibility 14.1 miles    
Events Snow    
Averages and records for this station are not official NWS values.
T = Trace of Precipitation, MM = Missing Value Source: Averaged Metar Reports

Daily Weather History Graph

Daily Weather History Graph

Search for Another Location

Airport or City:

Trip Planner

Search our weather history database for the weather conditions in past years. The results will help you decide how hot, cold, wet, or windy it might be!

Date:

Astronomy

Mar. 13, 2013 Rise Set
Actual Time 7:16 AM CST 7:00 PM CST
Civil Twilight 6:43 AM CST 7:33 PM CST
Nautical Twilight 6:05 AM CST 8:11 PM CST
Astronomical Twilight 5:26 AM CST 8:50 PM CST
Moon 7:41 AM CST (3/13) 9:39 PM CST (3/13)
Length of Visible Light 12h 49m
Length of Day
11h 44m
Waxing Crescent, 4% of the Moon is Illuminated
Mar 13
Waxing Crescent
Mar 19
First Quarter
Mar 27
Full
Apr 2
Last Quarter
Apr 10
New

Hourly Weather History & Observations

Time (CST) Temp. Windchill Dew Point Humidity Pressure Visibility Wind Dir Wind Speed Gust Speed Precip Events Conditions
12:00 AM 9 °F - 6 °F 81% 30.25 in 9 mi SSE 18.4 mph - -  
12:00 AM 8.6 °F -10.5 °F 6.8 °F 92% 30.25 in 15.0 mi SSE 19.6 mph - N/A   Scattered Clouds
1:00 AM 10.4 °F -7.7 °F 6.8 °F 85% 30.22 in 15.0 mi SSE 18.4 mph - N/A   Mostly Cloudy
2:00 AM 12.2 °F -4.8 °F 8.6 °F 85% 30.22 in 15.0 mi SSE 17.3 mph - N/A   Mostly Cloudy
3:00 AM 14.0 °F -5.1 °F 8.6 °F 79% 30.16 in 15.0 mi SE 24.2 mph - N/A   Overcast
4:00 AM 12.2 °F -7.5 °F 8.6 °F 85% 30.12 in 15.0 mi SE 24.2 mph - N/A Snow Low Drifting Snow
5:00 AM 12.2 °F -7.5 °F 6.8 °F 79% 30.10 in 15.0 mi SE 24.2 mph - N/A Snow Low Drifting Snow
6:00 AM 13 °F - 9 °F 77% 30.08 in 9 mi SE 21.9 mph - -  
6:00 AM 12.2 °F -6.7 °F 8.6 °F 85% 30.08 in 15.0 mi SE 21.9 mph - N/A Snow Low Drifting Snow
7:00 AM 14.0 °F -3.9 °F 10.4 °F 86% 30.08 in 15.0 mi SSE 20.7 mph - N/A Snow Low Drifting Snow
8:00 AM 14.0 °F -4.7 °F 10.4 °F 86% 30.06 in 15.0 mi SSE 23.0 mph 28.8 mph N/A Snow Low Drifting Snow
9:00 AM 15.8 °F -2.3 °F 10.4 °F 79% 30.03 in 15.0 mi SE 23.0 mph - N/A Snow Low Drifting Snow
10:00 AM 17.6 °F 0.5 °F 14.0 °F 86% 30.02 in 15.0 mi SSE 21.9 mph 27.6 mph N/A Snow Low Drifting Snow
11:00 AM 21.2 °F 6.4 °F 15.8 °F 80% 30.01 in 15.0 mi SSE 18.4 mph - N/A   Mostly Cloudy
12:00 PM 24 °F - 20 °F 76% 29.97 in 9 mi SSE 18.4 mph - -  
12:00 PM 24.8 °F 11.1 °F 19.4 °F 80% 29.97 in 15.0 mi SSE 18.4 mph - N/A   Mostly Cloudy
1:00 PM 26.6 °F 14.3 °F 23.0 °F 86% 29.96 in 15.0 mi SSE 16.1 mph - N/A   Mostly Cloudy
2:00 PM 30.2 °F 19.3 °F 24.8 °F 80% 29.95 in 15.0 mi SE 15.0 mph - N/A   Mostly Cloudy
3:00 PM 32.0 °F 22.5 °F 26.6 °F 80% 29.92 in 15.0 mi SE 12.7 mph 18.4 mph N/A   Scattered Clouds
4:00 PM 33.8 °F 25.3 °F 28.4 °F 81% 29.93 in 15.0 mi SE 11.5 mph - N/A   Scattered Clouds
5:00 PM 33.8 °F 27.7 °F 28.4 °F 81% 29.94 in 15.0 mi SSE 6.9 mph - N/A   Partly Cloudy
6:00 PM 33 °F - 29 °F 79% 29.94 in 9 mi SSE 5.8 mph - -  
6:00 PM 32.0 °F 27.5 °F 28.4 °F 87% 29.94 in 15.0 mi SSE 4.6 mph - N/A   Partly Cloudy
7:00 PM 30.2 °F - 26.6 °F 86% 29.96 in 15.0 mi Calm Calm - N/A   Partly Cloudy
8:00 PM 28.4 °F 17.5 °F 26.6 °F 93% 29.98 in 15.0 mi NW 13.8 mph - N/A   Partly Cloudy
9:00 PM 26.6 °F 16.2 °F 24.8 °F 93% 29.99 in 15.0 mi NW 11.5 mph - N/A   Partly Cloudy
10:00 PM 23.0 °F 11.7 °F 19.4 °F 86% 30.03 in 15.0 mi WNW 11.5 mph - N/A   Partly Cloudy
11:00 PM 23.0 °F 11.1 °F 21.2 °F 93% 30.05 in 15.0 mi WNW 12.7 mph - N/A   Mostly Cloudy